Content
SEND FEEDBACK

Daily
Averages
Monthly
Summary
Turkmenistan

ASHGABAT, TURKMENISTAN


Home > Asia > Turkmenistan
Elevation: 775 feet     Latitude: 37 58N     Longitude: 058 20E

WEATHER
 
SELECT A DAY
Number of Records: 177,491;   Date Range: 3/15/97 - 9/3/14
 
SHARE

PRINT THIS DATA

[ ← Previous Day ]
WEATHER ALMANAC - APRIL 26, 2013
[ Next Day → ]
[ °C ]   °F
Weather ElementAverageHighLow
Temperature61.7 °F75.2 °F (4:00 pm)48.2 °F (2:00 am)
Dewpoint37.7 °F46 °F (11:00 pm)32 °F (11:00 am)
Humidity42.1 %76 % (1:00 am)18 % (2:00 pm)
Barometer30.07 in30.14 in (8:00 am)30.04 in (5:00 pm)
Wind Speed5.8 mph11.2 mph (7:00 pm)
Wind Gust20.1 mph (5:00 pm)
Weather ElementAverage
Visibility6.1 mi
Wind DirectionSE (136.1 °)

Weather ElementTotal
Precipitation---
Heating Degree Days3.3 (Base 65)
Growing Degree Days11.7 (Base 50)
Averaged from 31 records on April 26, 2013
WEATHER CONDITIONS BREAKOUT
WIND DIRECTION BREAKOUT
WEATHER BY HOUR - APRIL 26, 2013
[ °C ]   °F
Local TimeTemperatureDewpointHumidityBarometerVisibilityWind DirectionWind SpeedGust SpeedPrecipitationEventsConditions
1:00 AM50.0 °F42.8 °F76 %30.09 in6.2 miSW (230°)4.5 mphClear
2:00 AM49.0 °F40.0 °F63 %30.10 in6.0 miESE (110°)4.5 mphClear
2:00 AM48.2 °F41.0 °F76 %30.06 in6.2 miVariable2.2 mphPartly Cloudy
3:00 AM50.0 °F39.2 °F66 %30.06 in6.2 miVariable2.2 mphPartly Cloudy
4:00 AM50.0 °F39.2 °F66 %30.06 in6.2 miNW (320°)4.5 mphPartly Cloudy
5:00 AM49.0 °F37.0 °F54 %30.09 in6.0 miSW (220°)4.5 mphScattered Clouds
5:00 AM48.2 °F37.4 °F66 %30.06 in6.2 miNNW (330°)4.5 mphMostly Cloudy
6:00 AM48.2 °F37.4 °F66 %30.06 in6.2 miCalmMostly Cloudy
7:00 AM51.8 °F37.4 °F58 %30.09 in6.2 miSSW (200°)6.7 mphMostly Cloudy
8:00 AM53.0 °F39.0 °F48 %30.14 in6.0 miSouth (180°)4.5 mphScattered Clouds
8:00 AM55.4 °F39.2 °F54 %30.09 in6.2 miSouth (180°)4.5 mphMostly Cloudy
9:00 AM62.6 °F33.8 °F34 %30.12 in6.2 miSE (130°)6.7 mphMostly Cloudy
10:00 AM64.4 °F33.8 °F32 %30.12 in6.2 miESE (110°)4.5 mphMostly Cloudy
11:00 AM65.0 °F37.0 °F24 %30.12 in6.0 miESE (110°)8.9 mphScattered Clouds
11:00 AM66.2 °F32.0 °F28 %30.12 in6.2 miEast (100°)6.7 mphMostly Cloudy
12:00 PM68.0 °F33.8 °F28 %30.12 in6.2 miENE (70°)4.5 mphMostly Cloudy
1:00 PM69.8 °F33.8 °F27 %30.09 in6.2 miEast (100°)6.7 mphMostly Cloudy
2:00 PM71.0 °F36.0 °F18 %30.08 in6.0 miNE (50°)4.5 mphPartly Cloudy
2:00 PM71.6 °F33.8 °F25 %30.09 in6.2 miENE (70°)6.7 mphScattered Clouds
3:00 PM73.4 °F33.8 °F23 %30.06 in6.2 miEast (90°)6.7 mphScattered Clouds
4:00 PM75.2 °F33.8 °F22 %30.06 in6.2 miEast (80°)6.7 mphScattered Clouds
5:00 PM73.0 °F38.0 °F18 %30.04 in6.0 miSSE (160°)6.7 mphScattered Clouds
5:00 PM73.4 °F33.8 °F23 %30.04 in6.2 miSE (140°)8.9 mph20.1 mphPartly Cloudy
6:00 PM73.4 °F37.4 °F27 %30.04 in6.2 miSE (130°)8.9 mphPartly Cloudy
7:00 PM71.6 °F37.4 °F29 %30.04 in6.2 miSE (130°)11.2 mphPartly Cloudy
8:00 PM68.0 °F39.0 °F24 %30.04 in6.0 miSE (140°)11.2 mphClear
8:00 PM68.0 °F37.4 °F33 %30.04 in6.2 miSE (140°)8.9 mphPartly Cloudy
9:00 PM62.6 °F41.0 °F45 %30.04 in6.2 miSSE (150°)6.7 mphPartly Cloudy
10:00 PM62.6 °F42.8 °F48 %30.04 in6.2 miSouth (190°)4.5 mphClear
11:00 PM60.0 °F46.0 °F50 %30.04 in6.0 miSouth (180°)4.5 mph
11:00 PM60.8 °F44.6 °F55 %30.04 in6.2 miSouth (180°)4.5 mphClear
Hourly data recorded from UTAA, located miles away from Ashgabat, Turkmenistan







STORIES FROM OUR PARTNERS